Home > Weather > Haywards Heath > Past weeks

Flag for United Kingdom Past Weather in Haywards Heath, England, United Kingdom — Yesterday and Last 2 Weeks

Now
70 °F

Passing clouds.


Feels Like: 70 °F
Forecast: 60 / 68 °F
Wind: 12 mph from Southwest

Location: London / Gatwick Airport

Current Time: Jul 28, 2016 at 1:33:03 PM

Latest Report: Jul 28, 2016 at 12:50 PM


Visibility: N/A

Pressure: 29.95 "Hg

Humidity: 57%

Dew Point: 54 °F

Location of Haywards HeathLocation

Past Weather in Haywards Heath — Graph

°F

Haywards Heath Temperature Yesterday

Maximum temperature yesterday: 73 °F (at 4:20 PM)
Minimum temperature yesterday: 61 °F (at 12:20 AM)
Average temperature yesterday: 66 °F

High & Low Weather Summary for the Past Weeks

 TemperatureHumidityPressure
High88 °F (Jul 19, 3:50 PM)100% (Jul 15, 3:20 AM)30.33 "Hg (Jul 15, 3:20 AM)
Low48 °F (Jul 15, 4:50 AM)37% (Jul 18, 3:50 PM)29.77 "Hg (Jul 20, 4:20 AM)
Average66 °F77%30.11 "Hg
* Reported Jul 13 12:20 PM — Jul 28 12:20 PM, Haywards Heath, Weather by CustomWeather, © 2016

Note: Actual official high and low records may vary slightly from our data, if they occured in-between our weather recording intervals... More about our weather records

Advertising

Haywards Heath Weather History for the Previous 24 Hours

Scroll right to see more
 ConditionsComfort  
Time TempWeatherWind HumidityBarometerVisibility
12:20 PM
Thu, Jul 28
72 °FScattered clouds.9 mph57%29.95 "HgN/A
11:50 AM70 °FPassing clouds.8 mph60%29.98 "HgN/A
11:20 AM70 °FScattered clouds.8 mph60%29.98 "HgN/A
10:50 AM68 °FPassing clouds.8 mph64%29.98 "HgN/A
10:20 AM68 °FPassing clouds.6 mph64%29.98 "HgN/A
9:50 AM66 °FPassing clouds.5 mph64%29.98 "HgN/A
9:20 AM64 °FPassing clouds.5 mph68%29.98 "HgN/A
8:50 AM63 °FPassing clouds.5 mph73%29.98 "HgN/A
8:20 AM63 °FPassing clouds.5 mph73%29.98 "HgN/A
7:50 AM61 °FPassing clouds.5 mph72%29.98 "HgN/A
7:20 AM59 °FPassing clouds.6 mph82%29.98 "HgN/A
6:50 AM59 °FPassing clouds.5 mph77%29.98 "HgN/A
6:20 AM57 °FPassing clouds.5 mph88%29.98 "HgN/A
5:50 AM55 °FPassing clouds.3 mph94%29.98 "HgN/A
5:20 AM55 °FPassing clouds.5 mph100%29.98 "HgN/A
4:50 AM55 °FPassing clouds.2 mph94%29.98 "HgN/A
4:20 AM55 °FPassing clouds.2 mph100%29.98 "HgN/A
3:50 AM57 °FPassing clouds.2 mph94%29.98 "HgN/A
3:20 AM57 °FPassing clouds.5 mph100%29.98 "HgN/A
2:50 AM57 °FPassing clouds.3 mph94%29.98 "HgN/A
2:20 AM59 °FPassing clouds.3 mph94%29.98 "HgN/A
1:50 AM59 °FPassing clouds.No wind94%29.98 "HgN/A
1:20 AM61 °FPassing clouds.2 mph88%29.98 "HgN/A
12:50 AM61 °FPartly cloudy.5 mph88%29.98 "HgN/A
12:20 AM61 °FPassing clouds.5 mph94%29.98 "HgN/A
11:50 PM
Wed, Jul 27
61 °FClear.6 mph94%29.98 "Hg10 mi
11:20 PM63 °FClear.7 mph94%29.98 "Hg10 mi
10:50 PM63 °FClear.7 mph94%29.98 "Hg10 mi
10:20 PM63 °FClear.5 mph94%29.98 "Hg10 mi
9:50 PM64 °FSunny.6 mph88%29.98 "Hg10 mi
9:20 PM66 °FSunny.7 mph88%29.98 "Hg10 mi
8:50 PM66 °FSunny.7 mph88%29.98 "Hg10 mi
8:20 PM68 °FPassing clouds.6 mph83%29.98 "HgN/A
7:50 PM70 °FPassing clouds.7 mph78%29.98 "HgN/A
7:20 PM70 °FPassing clouds.7 mph78%29.95 "HgN/A
6:50 PM72 °FPassing clouds.8 mph73%29.95 "HgN/A
6:20 PM72 °FScattered clouds.8 mph73%29.95 "HgN/A
5:50 PM72 °FScattered clouds.9 mph73%29.98 "HgN/A
5:20 PM73 °FPassing clouds.12 mph69%29.98 "HgN/A
4:50 PM72 °FScattered clouds.9 mph73%29.98 "HgN/A
4:20 PM73 °FScattered clouds.10 mph69%29.98 "HgN/A
3:50 PM72 °FScattered clouds.9 mph73%29.98 "HgN/A
3:20 PM70 °FScattered clouds.10 mph78%29.98 "HgN/A
2:50 PM70 °FBroken clouds.10 mph78%29.98 "HgN/A
2:20 PM70 °FBroken clouds.10 mph78%29.98 "HgN/A
1:50 PM68 °FScattered clouds.10 mph83%30.01 "HgN/A
1:20 PM68 °FBroken clouds.12 mph83%30.01 "HgN/A
Weather by CustomWeather, © 2016

See weather overviewHow to use our weather pages